Regional Weather Roundup
Issued by NWS

Home | Current Version | Previous Version | Graphics & Text | Print | Product List | Glossary On
Versions: 1 2 3 4 5 6 7 8 9 10 11 12 13 14 15 16 17 18 19 20 21 22 23 24 25 26 27 28 29 30 31 32 33 34 35 36 37 38 39 40 41 42 43 44 45 46 47 48 49 50
365
ASUS43 KLMK 040102
RWRKY
KENTUCKY REGIONAL WEATHER ROUNDUP
NATIONAL WEATHER SERVICE LOUISVILLE KY
900 PM EDT TUE MAY 03 2016

NOTE "FAIR" INDICATES FEW OR NO CLOUDS BELOW 12,000 FEET
WITH NO SIGNIFICANT WEATHER AND/OR OBSTRUCTIONS TO VISIBILITY.

KYZ001>023-026-027-061>063-070>075-040200-
WESTERN AND SOUTH CENTRAL KENTUCKY

CITY           SKY/WX    TMP DP  RH WIND       PRES   REMARKS
PADUCAH        CLOUDY    57  47  69 W3        29.94R
HENDERSON      CLOUDY    59  45  58 W6        29.91S
OWENSBORO      PTCLDY    59  45  59 CALM      29.92S
HOPKINSVILLE   CLOUDY    59  47  62 W5        29.93R
BOWLING GREEN  MOCLDY    59  44  57 CALM      29.92S
GLASGOW        NOT AVBL
$$

KYZ024-025-028>034-038-045-046-053-040200-
NORTH CENTRAL KENTUCKY

CITY           SKY/WX    TMP DP  RH WIND       PRES   REMARKS
LOUISVILLE/SDF CLOUDY    58  44  60 W8        29.90S
LOUISVILLE/LOU CLOUDY    58  46  64 CALM      29.90S
FORT KNOX      MOCLDY    53  47  79 NW2       29.89S
$$

KYZ035>037-039>044-047>052-055>060-089>105-040200-
NORTHEAST KENTUCKY

CITY           SKY/WX    TMP DP  RH WIND       PRES   REMARKS
LEXINGTON      CLOUDY    56  49  77 NW6       29.89R
COVINGTON      CLOUDY    54  51  90 SW6       29.87S
FRANKFORT      CLOUDY    56  48  74 NW3       29.89R
$$

KYZ054-064>069-076>088-106>120-040200-
SOUTHEAST KENTUCKY

CITY           SKY/WX    TMP DP  RH WIND       PRES   REMARKS
JACKSON        CLOUDY    55  45  68 W5        29.88S
LONDON         CLOUDY    57  46  66 NW3       29.89S
SOMERSET       NOT AVBL
MIDDLESBORO    NOT AVBL
MONTICELLO     CLOUDY    58  50  75 NW3       29.92S
$$





USA.gov is the U.S. government's official web portal to all federal, state and local government web resources and services.